OpenBCM V2.0.2 (Linux)

Packet Radio Mailbox

IZ3LSV

[San Dona' di P. JN]

 Login: GUEST





  
CX2SA  > KEPS     09.08.13 03:42l 94 Lines 2399 Bytes #999 (0) @ WW
BID : ORB13220.O
Read: GUEST
Subj: Orbital Elements  13220.OSCAR
Path: IZ3LSV<IQ5KG<IK1NHL<CX2SA
Sent: 130809/0143Z @:CX2SA.SAL.URY.SA #:9505 [Salto] FBB7.00e $:ORB13220.O
From: CX2SA@CX2SA.SAL.URY.SA
To  : KEPS@AMSAT


HR AMSAT ORBITAL ELEMENTS FOR OSCAR SATELLITES
FROM WA5QGD FORT WORTH,TX August 8, 2013
BID: ORB13220.O
TO ALL RADIO AMATEURS BT

Satellite: AO-07
Catalog number: 07530
Epoch time:      13220.85980541
Element set:     747
Inclination:      101.4366 deg
RA of node:       208.4623 deg
Eccentricity:    0.0011915
Arg of perigee:   182.7384 deg
Mean anomaly:     239.4959 deg
Mean motion:   12.53597299 rev/day
Decay rate:       -2.9e-07 rev/day^2
Epoch rev:           77238
Checksum:              327

Satellite: FO-29
Catalog number: 24278
Epoch time:      13220.11912409
Element set:     174
Inclination:      098.5506 deg
RA of node:       271.7252 deg
Eccentricity:    0.0350813
Arg of perigee:   029.7566 deg
Mean anomaly:     003.6630 deg
Mean motion:   13.53004184 rev/day
Decay rate:       -4.3e-07 rev/day^2
Epoch rev:           83833
Checksum:              286

Satellite: SO-33
Catalog number: 25509
Epoch time:      13220.85486019
Element set:     556
Inclination:      031.4342 deg
RA of node:       129.4122 deg
Eccentricity:    0.0351431
Arg of perigee:   259.0045 deg
Mean anomaly:     169.9241 deg
Mean motion:   14.29103750 rev/day
Decay rate:       2.62e-06 rev/day^2
Epoch rev:           77243
Checksum:              279

Satellite: RS-22
Catalog number: 27939
Epoch time:      13220.85964314
Element set:     658
Inclination:      097.7996 deg
RA of node:       045.9600 deg
Eccentricity:    0.0014009
Arg of perigee:   024.9774 deg
Mean anomaly:     335.2103 deg
Mean motion:   14.64530750 rev/day
Decay rate:       4.78e-06 rev/day^2
Epoch rev:           52700
Checksum:              314

Satellite: VO-52
Catalog number: 28650
Epoch time:      13220.85844574
Element set:     494
Inclination:      097.5680 deg
RA of node:       236.7595 deg
Eccentricity:    0.0027522
Arg of perigee:   107.4564 deg
Mean anomaly:     351.9366 deg
Mean motion:   14.84032350 rev/day
Decay rate:       7.70e-06 rev/day^2
Epoch rev:           44689
Checksum:              333

Satellite: HO-68
Catalog number: 36122
Epoch time:      13220.72269976
Element set:     796
Inclination:      100.3016 deg
RA of node:       276.4369 deg
Eccentricity:    0.0007244
Arg of perigee:   232.7216 deg
Mean anomaly:     127.3241 deg
Mean motion:   13.16306024 rev/day
Decay rate:       -4.4e-07 rev/day^2
Epoch rev:           17532
Checksum:              278



Read previous mail | Read next mail


 01.05.2026 21:36:00lGo back Go up